Home   Weather   Kirkenes   Past weeks

Flag for Norway Past Weather in Kirkenes, Norway — Yesterday and Last 2 Weeks

Now
51 °F

Cool.


Feels Like: 48 °F
Forecast: 42 / 52 °F
Wind: 9 mph from South

Location: Kirkenes Lufthavn

Current Time: Sep 1, 2016 at 3:54:46 AM

Latest Report: Sep 1, 2016 at 3:00 AM


Visibility: N/A

Pressure: 29.54 "Hg

Humidity: 82%

Dew Point: 46 °F

Location of KirkenesLocation

Past Weather in Kirkenes — Graph

°F

Kirkenes Temperature Yesterday

Maximum temperature yesterday: 59 °F (at 3:00 PM)
Minimum temperature yesterday: 43 °F (at 4:00 AM)
Average temperature yesterday: 52 °F

High & Low Weather Summary for the Past Weeks

 TemperatureHumidityPressure
High72 °F (Aug 20, 4:00 PM)97% (Aug 21, 1:00 AM)30.32 "Hg (Aug 21, 1:00 AM)
Low37 °F (Aug 28, 4:00 AM)44% (Aug 29, 3:00 PM)29.55 "Hg (Sep 1, 2:00 AM)
Average52 °F75%29.94 "Hg
* Reported Aug 17 2:00 AM — Sep 1 2:00 AM, Kirkenes, Weather by CustomWeather, © 2016

Note: Actual official high and low records may vary slightly from our data, if they occured in-between our weather recording intervals... More about our weather records

Advertising

Kirkenes Weather History for the Previous 24 Hours

Scroll right to see more
 ConditionsComfort  
Time TempWeatherWind HumidityBarometerVisibility
2:00 AM
Thu, Sep 1
51 °FCool.10 mph83%29.55 "HgN/A
1:00 AM51 °FCool.10 mph83%29.56 "HgN/A
12:00 AM50 °FCool.13 mph82%29.57 "HgN/A
11:00 PM
Wed, Aug 31
51 °FCool.12 mph79%29.59 "HgN/A
10:00 PM50 °FCool.10 mph79%29.60 "HgN/A
8:00 PM55 °FRefreshingly cool.10 mph57%29.63 "HgN/A
7:00 PM55 °FCool.9 mph65%29.64 "HgN/A
6:00 PM55 °FCool.10 mph62%29.67 "HgN/A
5:00 PM57 °FRefreshingly cool.10 mph57%29.67 "HgN/A
4:00 PM58 °FRefreshingly cool.10 mph54%29.69 "HgN/A
3:00 PM59 °FRefreshingly cool.9 mph53%29.70 "HgN/A
2:00 PM59 °FRefreshingly cool.7 mph53%29.72 "HgN/A
1:00 PM59 °FRefreshingly cool.7 mph56%29.73 "HgN/A
12:00 PM59 °FRefreshingly cool.7 mph58%29.74 "HgN/A
11:00 AM58 °FCool.6 mph61%29.73 "HgN/A
10:00 AM55 °FCool.5 mph74%29.75 "HgN/A
9:00 AM52 °FCool.3 mph79%29.75 "HgN/A
8:00 AM49 °FCool.2 mph86%29.75 "HgN/A
7:00 AM47 °FCool.2 mph87%29.75 "HgN/A
6:00 AM46 °FCool.No wind88%29.75 "HgN/A
5:00 AM44 °FQuite cool.1 mph94%29.74 "HgN/A
4:00 AM43 °FQuite cool.2 mph94%29.73 "HgN/A
3:00 AM45 °FQuite cool.2 mph94%29.72 "HgN/A
Weather by CustomWeather, © 2016

See weather overviewHow to use our weather pages